ECHOSTAR 7

Last updated on Sat Oct 29 2022 00:02:42 GMT+0000 (Coordinated Universal Time)

1 27378U 02006A 22301.56281345 .00000064 00000+0 00000+0 0 9995 2 27378 0.5756 92.6652 0001624 69.5310 318.2211 0.99833865 37288
UTC large
Height (km)
Speed (km/s)
/
Latitude / Longitude
Inclination (degrees)
Orbital Period (minutes)
Azimuth
Elevation
Range (km)
Doppler Factor

Next 0 passes for location: London (51.5072 / 0.1276)

Sorry there are no passes over London.
ECHOSTAR 7